| time (UTC) | temp C | wind direction | speed KPH | gust KPH | rain 1hr cm | rain 24hr cm | rain mn cm | humidity % | barometer mb |
| 20260901095400 | 11 | 90 | 4.8 | 9.7 | 0.00 | 0.00 | 0.00 | 57 | 1013.5 |
| 20260901094854 | 11 | 93 | 4.8 | 6.4 | 0.00 | 0.00 | 0.00 | 60 | 1013.5 |
| 20260901094348 | 11 | 84 | 4.8 | 6.4 | 0.00 | 0.00 | 0.00 | 61 | 1013.5 |
| 20260901093844 | 11 | 81 | 4.8 | 6.4 | 0.00 | 0.00 | 0.00 | 60 | 1013.5 |
| 20260901093343 | 11 | 68 | 4.8 | 8.0 | 0.00 | 0.00 | 0.00 | 59 | 1013.7 |
| 20260901092839 | 11 | 96 | 8.0 | 8.0 | 0.00 | 0.00 | 0.00 | 62 | 1013.5 |
| 20260901092334 | 11 | 96 | 4.8 | 6.4 | 0.00 | 0.00 | 0.00 | 61 | 1013.5 |
| 20260901091831 | 11 | 94 | 4.8 | 6.4 | 0.00 | 0.00 | 0.00 | 61 | 1013.4 |
| 20260901091330 | 11 | 112 | 3.2 | 6.4 | 0.00 | 0.00 | 0.00 | 61 | 1013.5 |
| 20260901090825 | 12 | 107 | 4.8 | 4.8 | 0.00 | 0.00 | 0.00 | 58 | 1013.5 |
| 20260901090320 | 11 | 109 | 3.2 | 6.4 | 0.00 | 0.00 | 0.00 | 60 | 1013.4 |
| 20260901085816 | 11 | 103 | 6.4 | 8.0 | 0.00 | 0.00 | 0.00 | 60 | 1013.5 |
| 20260901085316 | 12 | 105 | 1.6 | 4.8 | 0.00 | 0.00 | 0.00 | 59 | 1013.5 |
| 20260901084813 | 12 | 111 | 1.6 | 3.2 | 0.00 | 0.00 | 0.00 | 59 | 1013.6 |
| 20260901084309 | 12 | 103 | 3.2 | 4.8 | 0.00 | 0.00 | 0.00 | 58 | 1013.6 |
| 20260901083808 | 12 | 139 | 3.2 | 3.2 | 0.00 | 0.00 | 0.00 | 57 | 1013.7 |
| 20260901083303 | 12 | 154 | 3.2 | 3.2 | 0.00 | 0.00 | 0.00 | 58 | 1013.8 |
| 20260901082801 | 12 | 90 | 0.0 | 3.2 | 0.00 | 0.00 | 0.00 | 58 | 1013.7 |
| 20260901082257 | 12 | 112 | 3.2 | 4.8 | 0.00 | 0.00 | 0.00 | 57 | 1013.7 |
| 20260901081752 | 12 | 68 | 3.2 | 4.8 | 0.00 | 0.00 | 0.00 | 57 | 1013.6 |
| 20260901081252 | 12 | 126 | 0.0 | 3.2 | 0.00 | 0.00 | 0.00 | 55 | 1013.5 |
| 20260901080747 | 12 | 139 | 3.2 | 4.8 | 0.00 | 0.00 | 0.00 | 57 | 1013.5 |
| 20260901080246 | 12 | 74 | 0.0 | 3.2 | 0.00 | 0.00 | 0.00 | 55 | 1013.7 |
| 20260901075740 | 13 | 117 | 1.6 | 4.8 | 0.00 | 0.00 | 0.00 | 54 | 1013.7 |
| 20260901075235 | 13 | 90 | 1.6 | 1.6 | 0.00 | 0.00 | 0.00 | 52 | 1013.6 |
| 20260901074730 | 14 | 74 | 3.2 | 3.2 | 0.00 | 0.00 | 0.00 | 50 | 1013.6 |
| 20260901074225 | 13 | 96 | 4.8 | 6.4 | 0.00 | 0.00 | 0.00 | 50 | 1013.6 |
| 20260901073722 | 13 | 98 | 0.0 | 1.6 | 0.00 | 0.00 | 0.00 | 52 | 1013.7 |
| 20260901073217 | 14 | 114 | 3.2 | 8.0 | 0.00 | 0.00 | 0.00 | 50 | 1013.5 |
| 20260901072712 | 15 | 73 | 6.4 | 9.7 | 0.00 | 0.00 | 0.00 | 49 | 1013.5 |
| 20260901072207 | 15 | 111 | 6.4 | 11.3 | 0.00 | 0.00 | 0.00 | 48 | 1013.5 |
| 20260901071707 | 15 | 188 | 0.0 | 12.9 | 0.00 | 0.00 | 0.00 | 49 | 1013.5 |
| 20260901071201 | 15 | 171 | 0.0 | 8.0 | 0.00 | 0.00 | 0.00 | 49 | 1013.7 |
| 20260901070655 | 13 | 86 | 3.2 | 3.2 | 0.00 | 0.00 | 0.00 | 51 | 1013.6 |
| 20260901070150 | 13 | 106 | 0.0 | 3.2 | 0.00 | 0.00 | 0.00 | 54 | 1013.6 |
| 20260901065649 | 14 | 151 | 0.0 | 3.2 | 0.00 | 0.00 | 0.00 | 51 | 1013.5 |
| 20260901065144 | 13 | 84 | 3.2 | 6.4 | 0.00 | 0.00 | 0.00 | 53 | 1013.7 |
| 20260901064641 | 14 | 120 | 0.0 | 4.8 | 0.00 | 0.00 | 0.00 | 51 | 1013.4 |
| 20260901064137 | 15 | 102 | 3.2 | 3.2 | 0.00 | 0.00 | 0.00 | 49 | 1013.5 |
| 20260901063635 | 15 | 90 | 3.2 | 14.5 | 0.00 | 0.00 | 0.00 | 47 | 1013.6 |
| 20260901063130 | 15 | 78 | 8.0 | 11.3 | 0.00 | 0.00 | 0.00 | 48 | 1013.4 |
| 20260901062625 | 14 | 125 | 4.8 | 9.7 | 0.00 | 0.00 | 0.00 | 50 | 1013.5 |
| 20260901062121 | 15 | 112 | 4.8 | 11.3 | 0.00 | 0.00 | 0.00 | 51 | 1013.4 |
| 20260901061617 | 15 | 103 | 14.5 | 14.5 | 0.00 | 0.00 | 0.00 | 47 | 1013.6 |
| 20260901061111 | 15 | 104 | 9.7 | 12.9 | 0.00 | 0.00 | 0.00 | 48 | 1013.4 |
| 20260901060606 | 13 | 113 | 6.4 | 9.7 | 0.00 | 0.00 | 0.00 | 54 | 1013.6 |
| 20260901055556 | 14 | 107 | 4.8 | 8.0 | 0.00 | 0.00 | 0.00 | 51 | 1013.5 |
| 20260901055053 | 15 | 157 | 0.0 | 3.2 | 0.00 | 0.00 | 0.00 | 49 | 1013.6 |
| 20260901054550 | 14 | 115 | 3.2 | 6.4 | 0.00 | 0.00 | 0.00 | 51 | 1013.7 |
| 20260901054045 | 15 | 151 | 0.0 | 3.2 | 0.00 | 0.00 | 0.00 | 47 | 1013.6 |
| 20260901053542 | 15 | 144 | 0.0 | 4.8 | 0.00 | 0.00 | 0.00 | 50 | 1013.7 |
| 20260901053037 | 15 | 135 | 3.2 | 6.4 | 0.00 | 0.00 | 0.00 | 49 | 1013.5 |
| 20260901052537 | 15 | 123 | 3.2 | 4.8 | 0.00 | 0.00 | 0.00 | 49 | 1013.7 |
| 20260901052032 | 15 | 112 | 3.2 | 3.2 | 0.00 | 0.00 | 0.00 | 50 | 1013.5 |
| 20260901051527 | 15 | 129 | 3.2 | 6.4 | 0.00 | 0.00 | 0.00 | 48 | 1013.6 |
| 20260901051026 | 16 | 103 | 6.4 | 8.0 | 0.00 | 0.00 | 0.00 | 44 | 1013.5 |
| 20260901050521 | 16 | 112 | 4.8 | 6.4 | 0.00 | 0.00 | 0.00 | 44 | 1013.6 |
| 20260901050016 | 15 | 125 | 8.0 | 8.0 | 0.00 | 0.00 | 0.00 | 46 | 1013.7 |
| 20260901045511 | 16 | 100 | 6.4 | 8.0 | 0.00 | 0.00 | 0.00 | 46 | 1013.5 |
| 20260901045006 | 16 | 90 | 6.4 | 8.0 | 0.00 | 0.00 | 0.00 | 45 | 1013.6 |
| 20260901044502 | 16 | 110 | 9.7 | 11.3 | 0.00 | 0.00 | 0.00 | 44 | 1013.6 |
| 20260901043957 | 16 | 123 | 3.2 | 8.0 | 0.00 | 0.00 | 0.00 | 44 | 1013.6 |
| 20260901043453 | 16 | 113 | 6.4 | 12.9 | 0.00 | 0.00 | 0.00 | 45 | 1013.7 |
| 20260901042948 | 16 | 123 | 6.4 | 8.0 | 0.00 | 0.00 | 0.00 | 47 | 1013.7 |
| 20260901042447 | 16 | 83 | 6.4 | 9.7 | 0.00 | 0.00 | 0.00 | 44 | 1013.7 |
| 20260901041943 | 16 | 107 | 9.7 | 9.7 | 0.00 | 0.00 | 0.00 | 44 | 1013.8 |
| 20260901041438 | 17 | 87 | 4.8 | 9.7 | 0.00 | 0.00 | 0.00 | 43 | 1013.6 |
| 20260901040937 | 17 | 96 | 8.0 | 11.3 | 0.00 | 0.00 | 0.00 | 44 | 1013.8 |
| 20260901040432 | 16 | 111 | 4.8 | 6.4 | 0.00 | 0.00 | 0.00 | 45 | 1013.5 |
| 20260901035931 | 16 | 85 | 4.8 | 9.7 | 0.00 | 0.00 | 0.00 | 44 | 1013.7 |
| 20260901035430 | 16 | 111 | 4.8 | 4.8 | 0.00 | 0.00 | 0.00 | 44 | 1013.7 |
| 20260901034929 | 16 | 107 | 6.4 | 6.4 | 0.00 | 0.00 | 0.00 | 44 | 1013.8 |
| 20260901034424 | 17 | 103 | 6.4 | 8.0 | 0.00 | 0.00 | 0.00 | 43 | 1013.6 |
| 20260901033919 | 17 | 106 | 4.8 | 6.4 | 0.00 | 0.00 | 0.00 | 42 | 1013.7 |
| 20260901033418 | 18 | 111 | 6.4 | 11.3 | 0.00 | 0.00 | 0.00 | 40 | 1013.6 |
| 20260901032916 | 17 | 110 | 4.8 | 8.0 | 0.00 | 0.00 | 0.00 | 42 | 1013.8 |
| 20260901032416 | 18 | 107 | 4.8 | 4.8 | 0.00 | 0.00 | 0.00 | 41 | 1013.8 |
| 20260901031911 | 18 | 115 | 3.2 | 4.8 | 0.00 | 0.00 | 0.00 | 41 | 1013.6 |
| 20260901031407 | 19 | 194 | 0.0 | 0.0 | 0.00 | 0.00 | 0.00 | 39 | 1013.7 |
| 20260901030906 | 20 | 215 | 0.0 | 4.8 | 0.00 | 0.00 | 0.00 | 38 | 1013.6 |
| 20260901030402 | 20 | 133 | 4.8 | 12.9 | 0.00 | 0.00 | 0.00 | 37 | 1013.5 |
| 20260901025901 | 20 | 125 | 6.4 | 16.1 | 0.00 | 0.00 | 0.00 | 37 | 1013.5 |
| 20260901025356 | 20 | 128 | 6.4 | 11.3 | 0.00 | 0.00 | 0.00 | 38 | 1013.5 |
| 20260901024851 | 20 | 162 | 1.6 | 8.0 | 0.00 | 0.00 | 0.00 | 36 | 1013.5 |
| 20260901024350 | 20 | 90 | 3.2 | 9.7 | 0.00 | 0.00 | 0.00 | 37 | 1013.2 |
| 20260901023848 | 20 | 90 | 6.4 | 8.0 | 0.00 | 0.00 | 0.00 | 37 | 1013.1 |
| 20260901023344 | 20 | 109 | 4.8 | 6.4 | 0.00 | 0.00 | 0.00 | 37 | 1013.2 |
| 20260901022838 | 20 | 90 | 4.8 | 8.0 | 0.00 | 0.00 | 0.00 | 36 | 1013.1 |
| 20260901022335 | 21 | 112 | 4.8 | 8.0 | 0.00 | 0.00 | 0.00 | 37 | 1013.1 |
| 20260901021830 | 21 | 111 | 4.8 | 4.8 | 0.00 | 0.00 | 0.00 | 38 | 1013.1 |
| 20260901021325 | 21 | 121 | 3.2 | 4.8 | 0.00 | 0.00 | 0.00 | 39 | 1013.1 |
| 20260901020820 | 21 | 128 | 3.2 | 3.2 | 0.00 | 0.00 | 0.00 | 40 | 1013.2 |
| 20260901020315 | 22 | 180 | 0.0 | 0.0 | 0.00 | 0.00 | 0.00 | 39 | 1012.9 |
| 20260901015809 | 22 | 180 | 0.0 | 0.0 | 0.00 | 0.00 | 0.00 | 39 | 1013.2 |
| 20260901015306 | 23 | 188 | 0.0 | 3.2 | 0.00 | 0.00 | 0.00 | 34 | 1012.9 |
| 20260901014805 | 24 | 240 | 0.0 | 1.6 | 0.00 | 0.00 | 0.00 | 34 | 1012.8 |
| 20260901014301 | 25 | 254 | 0.0 | 3.2 | 0.00 | 0.00 | 0.00 | 32 | 1012.9 |
| 20260901013757 | 25 | 213 | 3.2 | 3.2 | 0.00 | 0.00 | 0.00 | 31 | 1012.9 |
| 20260901013252 | 25 | 180 | 0.0 | 3.2 | 0.00 | 0.00 | 0.00 | 30 | 1012.8 |
| 20260901012747 | 26 | 185 | 0.0 | 3.2 | 0.00 | 0.00 | 0.00 | 30 | 1012.9 |
| 20260901012247 | 26 | 195 | 0.0 | 3.2 | 0.00 | 0.00 | 0.00 | 30 | 1013.0 |
| 20260901011743 | 26 | 285 | 1.6 | 4.8 | 0.00 | 0.00 | 0.00 | 28 | 1012.9 |
| 20260901011238 | 26 | 263 | 4.8 | 6.4 | 0.00 | 0.00 | 0.00 | 29 | 1012.7 |
| 20260901010732 | 27 | 266 | 4.8 | 4.8 | 0.00 | 0.00 | 0.00 | 27 | 1012.9 |
| 20260901010227 | 26 | 245 | 6.4 | 6.4 | 0.00 | 0.00 | 0.00 | 28 | 1013.0 |
| 20260901005725 | 27 | 297 | 0.0 | 3.2 | 0.00 | 0.00 | 0.00 | 29 | 1012.8 |
| 20260901005221 | 27 | 303 | 3.2 | 6.4 | 0.00 | 0.00 | 0.00 | 28 | 1012.9 |
| 20260901004720 | 27 | 270 | 4.8 | 6.4 | 0.00 | 0.00 | 0.00 | 27 | 1012.9 |
| 20260901004210 | 27 | 274 | 3.2 | 8.0 | 0.00 | 0.00 | 0.00 | 26 | 1013.2 |
| 20260901003709 | 27 | 261 | 0.0 | 3.2 | 0.00 | 0.00 | 0.00 | 27 | 1013.4 |
| 20260901003209 | 27 | 262 | 4.8 | 6.4 | 0.00 | 0.00 | 0.00 | 25 | 1013.4 |
| 20260901002703 | 27 | 287 | 3.2 | 3.2 | 0.00 | 0.00 | 0.00 | 26 | 1013.2 |
| 20260901002158 | 27 | 285 | 3.2 | 8.0 | 0.00 | 0.00 | 0.00 | 26 | 1013.4 |
| 20260901001653 | 27 | 325 | 0.0 | 4.8 | 0.00 | 0.00 | 0.00 | 26 | 1013.5 |
| 20260901001148 | 27 | 290 | 3.2 | 8.0 | 0.00 | 0.00 | 0.00 | 26 | 1013.6 |
| 20260901000644 | 27 | 278 | 3.2 | 8.0 | 0.00 | 0.00 | 0.00 | 26 | 1013.6 |
| 20260901000139 | 26 | 270 | 0.0 | 9.7 | 0.00 | 0.00 | 0.00 | 25 | 1013.6 |
| 20260831235633 | 27 | 257 | 6.4 | 9.7 | 0.00 | 0.00 | 0.00 | 26 | 1013.6 |
| 20260831235128 | 27 | 266 | 3.2 | 4.8 | 0.00 | 0.00 | 0.00 | 25 | 1013.7 |
| 20260831234627 | 27 | 286 | 1.6 | 4.8 | 0.00 | 0.00 | 0.00 | 25 | 1013.6 |
| 20260831234123 | 27 | 350 | 3.2 | 6.4 | 0.00 | 0.00 | 0.00 | 27 | 1013.9 |
| 20260831233618 | 27 | 29 | 0.0 | 6.4 | 0.00 | 0.00 | 0.00 | 26 | 1013.8 |
| 20260831233113 | 27 | 187 | 1.6 | 6.4 | 0.00 | 0.00 | 0.00 | 25 | 1014.0 |
| 20260831232609 | 27 | 245 | 3.2 | 6.4 | 0.00 | 0.00 | 0.00 | 26 | 1014.0 |
| 20260831232104 | 27 | 31 | 4.8 | 6.4 | 0.00 | 0.00 | 0.00 | 26 | 1013.9 |
| 20260831231601 | 26 | 21 | 3.2 | 4.8 | 0.00 | 0.00 | 0.00 | 26 | 1014.1 |
| 20260831231056 | 27 | 264 | 0.0 | 3.2 | 0.00 | 0.00 | 0.00 | 25 | 1014.6 |
| 20260831230552 | 27 | 250 | 4.8 | 4.8 | 0.00 | 0.00 | 0.00 | 26 | 1014.4 |
| 20260831230052 | 26 | 334 | 0.0 | 4.8 | 0.00 | 0.00 | 0.00 | 26 | 1014.2 |
| 20260831225547 | 26 | 279 | 4.8 | 9.7 | 0.00 | 0.00 | 0.00 | 28 | 1014.5 |
| 20260831225041 | 26 | 277 | 6.4 | 9.7 | 0.00 | 0.00 | 0.00 | 26 | 1014.6 |
| 20260831224537 | 26 | 35 | 0.0 | 4.8 | 0.00 | 0.00 | 0.00 | 26 | 1014.8 |
| 20260831224032 | 26 | 41 | 3.2 | 6.4 | 0.00 | 0.00 | 0.00 | 28 | 1014.6 |
| 20260831223527 | 25 | 234 | 1.6 | 6.4 | 0.00 | 0.00 | 0.00 | 26 | 1014.8 |
| 20260831223024 | 25 | 270 | 8.0 | 9.7 | 0.00 | 0.00 | 0.00 | 28 | 1014.8 |
| 20260831222520 | 25 | 82 | 4.8 | 6.4 | 0.00 | 0.00 | 0.00 | 27 | 1014.9 |
| 20260831222019 | 25 | 347 | 4.8 | 6.4 | 0.00 | 0.00 | 0.00 | 27 | 1015.0 |
| 20260831221515 | 25 | 0 | 1.6 | 8.0 | 0.00 | 0.00 | 0.00 | 28 | 1015.0 |
| 20260831221010 | 25 | 335 | 6.4 | 6.4 | 0.00 | 0.00 | 0.00 | 27 | 1015.0 |
| 20260831220505 | 25 | 65 | 0.0 | 4.8 | 0.00 | 0.00 | 0.00 | 26 | 1015.1 |
| 20260831220000 | 25 | 228 | 3.2 | 8.0 | 0.00 | 0.00 | 0.00 | 28 | 1015.5 |
| 20260831215456 | 25 | 9 | 4.8 | 8.0 | 0.00 | 0.00 | 0.00 | 27 | 1015.2 |
| 20260831214952 | 25 | 292 | 4.8 | 8.0 | 0.00 | 0.00 | 0.00 | 28 | 1015.5 |
| 20260831214449 | 24 | 328 | 4.8 | 14.5 | 0.00 | 0.00 | 0.00 | 29 | 1015.6 |
| 20260831213945 | 25 | 255 | 0.0 | 6.4 | 0.00 | 0.00 | 0.00 | 28 | 1015.7 |
| 20260831213441 | 24 | 306 | 1.6 | 11.3 | 0.00 | 0.00 | 0.00 | 27 | 1015.6 |
| 20260831212941 | 24 | 331 | 1.6 | 6.4 | 0.00 | 0.00 | 0.00 | 28 | 1015.8 |
| 20260831212437 | 25 | 306 | 8.0 | 8.0 | 0.00 | 0.00 | 0.00 | 30 | 1015.6 |
| 20260831211937 | 24 | 221 | 3.2 | 9.7 | 0.00 | 0.00 | 0.00 | 29 | 1015.7 |
| 20260831211432 | 23 | 251 | 6.4 | 6.4 | 0.00 | 0.00 | 0.00 | 29 | 1015.8 |
| 20260831210931 | 23 | 263 | 1.6 | 8.0 | 0.00 | 0.00 | 0.00 | 30 | 1016.2 |
| 20260831210427 | 23 | 285 | 3.2 | 11.3 | 0.00 | 0.00 | 0.00 | 29 | 1015.9 |
| 20260831205923 | 23 | 231 | 8.0 | 8.0 | 0.00 | 0.00 | 0.00 | 30 | 1016.2 |
| 20260831205418 | 23 | 279 | 4.8 | 8.0 | 0.00 | 0.00 | 0.00 | 31 | 1016.1 |
| 20260831204913 | 23 | 239 | 6.4 | 11.3 | 0.00 | 0.00 | 0.00 | 30 | 1016.1 |
| 20260831204412 | 23 | 247 | 8.0 | 9.7 | 0.00 | 0.00 | 0.00 | 30 | 1016.4 |
| 20260831203906 | 23 | 281 | 4.8 | 8.0 | 0.00 | 0.00 | 0.00 | 30 | 1016.2 |
| 20260831203401 | 22 | 157 | 0.0 | 8.0 | 0.00 | 0.00 | 0.00 | 30 | 1016.2 |
| 20260831202858 | 23 | 306 | 4.8 | 9.7 | 0.00 | 0.00 | 0.00 | 30 | 1016.6 |
| 20260831202354 | 22 | 303 | 3.2 | 8.0 | 0.00 | 0.00 | 0.00 | 31 | 1016.6 |
| 20260831201854 | 22 | 252 | 9.7 | 9.7 | 0.00 | 0.00 | 0.00 | 32 | 1016.7 |
| 20260831201352 | 22 | 265 | 6.4 | 8.0 | 0.00 | 0.00 | 0.00 | 33 | 1016.8 |
| 20260831200849 | 22 | 342 | 4.8 | 4.8 | 0.00 | 0.00 | 0.00 | 33 | 1016.7 |
| 20260831200343 | 21 | 14 | 4.8 | 8.0 | 0.00 | 0.00 | 0.00 | 32 | 1016.8 |
| 20260831195838 | 21 | 29 | 0.0 | 4.8 | 0.00 | 0.00 | 0.00 | 33 | 1017.0 |
| 20260831195334 | 21 | 335 | 6.4 | 8.0 | 0.00 | 0.00 | 0.00 | 34 | 1016.9 |
| 20260831194830 | 20 | 299 | 3.2 | 6.4 | 0.00 | 0.00 | 0.00 | 35 | 1017.1 |
| 20260831194325 | 21 | 8 | 0.0 | 8.0 | 0.00 | 0.00 | 0.00 | 34 | 1017.4 |
| 20260831193824 | 21 | 84 | 1.6 | 8.0 | 0.00 | 0.00 | 0.00 | 36 | 1017.4 |
| 20260831193319 | 20 | 239 | 0.0 | 9.7 | 0.00 | 0.00 | 0.00 | 38 | 1017.5 |
| 20260831192814 | 20 | 256 | 4.8 | 8.0 | 0.00 | 0.00 | 0.00 | 37 | 1017.5 |
| 20260831192309 | 20 | 270 | 4.8 | 9.7 | 0.00 | 0.00 | 0.00 | 38 | 1017.5 |
| 20260831191805 | 20 | 281 | 4.8 | 12.9 | 0.00 | 0.00 | 0.00 | 38 | 1017.6 |
| 20260831191301 | 20 | 113 | 3.2 | 4.8 | 0.00 | 0.00 | 0.00 | 37 | 1017.6 |
| 20260831190756 | 19 | 313 | 4.8 | 6.4 | 0.00 | 0.00 | 0.00 | 40 | 1017.8 |
| 20260831190250 | 19 | 90 | 3.2 | 4.8 | 0.00 | 0.00 | 0.00 | 41 | 1017.9 |
| 20260831185744 | 19 | 324 | 4.8 | 8.0 | 0.00 | 0.00 | 0.00 | 40 | 1017.9 |
| 20260831185241 | 19 | 312 | 9.7 | 11.3 | 0.00 | 0.00 | 0.00 | 41 | 1018.0 |
| 20260831184739 | 18 | 0 | 0.0 | 4.8 | 0.00 | 0.00 | 0.00 | 44 | 1018.5 |
| 20260831184235 | 17 | 272 | 8.0 | 11.3 | 0.00 | 0.00 | 0.00 | 43 | 1018.3 |
| 20260831183736 | 17 | 327 | 0.0 | 6.4 | 0.00 | 0.00 | 0.00 | 44 | 1018.3 |
| 20260831183230 | 17 | 249 | 1.6 | 8.0 | 0.00 | 0.00 | 0.00 | 45 | 1018.8 |
| 20260831182728 | 16 | 249 | 4.8 | 6.4 | 0.00 | 0.00 | 0.00 | 43 | 1018.6 |
| 20260831182224 | 16 | 294 | 1.6 | 8.0 | 0.00 | 0.00 | 0.00 | 43 | 1018.7 |
| 20260831181724 | 17 | 353 | 6.4 | 8.0 | 0.00 | 0.00 | 0.00 | 42 | 1018.8 |
| 20260831181220 | 16 | 157 | 1.6 | 6.4 | 0.00 | 0.00 | 0.00 | 43 | 1018.8 |
| 20260831180714 | 16 | 257 | 3.2 | 4.8 | 0.00 | 0.00 | 0.00 | 44 | 1018.9 |
| 20260831180209 | 15 | 275 | 6.4 | 8.0 | 0.00 | 0.00 | 0.00 | 45 | 1019.1 |
| 20260831175709 | 15 | 357 | 4.8 | 6.4 | 0.00 | 0.00 | 0.00 | 45 | 1019.3 |
| 20260831175206 | 15 | 212 | 3.2 | 8.0 | 0.00 | 0.00 | 0.00 | 44 | 1019.3 |
| 20260831174705 | 15 | 263 | 0.0 | 8.0 | 0.00 | 0.00 | 0.00 | 45 | 1019.3 |
| 20260831174201 | 15 | 311 | 0.0 | 6.4 | 0.00 | 0.00 | 0.00 | 47 | 1019.5 |
| 20260831173659 | 15 | 307 | 3.2 | 4.8 | 0.00 | 0.00 | 0.00 | 46 | 1019.5 |
| 20260831173155 | 15 | 341 | 8.0 | 9.7 | 0.00 | 0.00 | 0.00 | 46 | 1019.3 |
| 20260831172655 | 15 | 277 | 0.0 | 8.0 | 0.00 | 0.00 | 0.00 | 48 | 1019.3 |
| 20260831172150 | 15 | 24 | 3.2 | 4.8 | 0.00 | 0.00 | 0.00 | 48 | 1019.6 |
| 20260831171645 | 15 | 90 | 0.0 | 4.8 | 0.00 | 0.00 | 0.00 | 48 | 1019.7 |
| 20260831171143 | 15 | 26 | 3.2 | 6.4 | 0.00 | 0.00 | 0.00 | 48 | 1019.8 |
| 20260831170638 | 15 | 60 | 0.0 | 4.8 | 0.00 | 0.00 | 0.00 | 52 | 1019.6 |
| 20260831170135 | 13 | 13 | 4.8 | 6.4 | 0.00 | 0.00 | 0.00 | 55 | 1019.8 |
| 20260831165631 | 14 | 60 | 0.0 | 3.2 | 0.00 | 0.00 | 0.00 | 53 | 1019.7 |
| 20260831165127 | 13 | 50 | 8.0 | 9.7 | 0.00 | 0.00 | 0.00 | 55 | 1019.9 |
| 20260831164623 | 13 | 294 | 4.8 | 6.4 | 0.00 | 0.00 | 0.00 | 58 | 1019.9 |
| 20260831164119 | 12 | 270 | 6.4 | 6.4 | 0.00 | 0.00 | 0.00 | 57 | 1020.1 |
| 20260831163613 | 13 | 285 | 1.6 | 6.4 | 0.00 | 0.00 | 0.00 | 56 | 1019.9 |
| 20260831163109 | 12 | 331 | 0.0 | 6.4 | 0.00 | 0.00 | 0.00 | 57 | 1020.2 |
| 20260831162608 | 12 | 349 | 0.0 | 4.8 | 0.00 | 0.00 | 0.00 | 59 | 1020.1 |
| 20260831162106 | 11 | 277 | 0.0 | 9.7 | 0.00 | 0.00 | 0.00 | 60 | 1020.0 |
| 20260831161602 | 11 | 352 | 3.2 | 4.8 | 0.00 | 0.00 | 0.00 | 61 | 1020.3 |
| 20260831161059 | 11 | 10 | 4.8 | 6.4 | 0.00 | 0.00 | 0.00 | 60 | 1020.2 |
| 20260831160557 | 11 | 151 | 0.0 | 3.2 | 0.00 | 0.00 | 0.00 | 61 | 1020.3 |
| 20260831160053 | 11 | 270 | 3.2 | 4.8 | 0.00 | 0.00 | 0.00 | 61 | 1020.2 |
| 20260831155547 | 11 | 40 | 3.2 | 3.2 | 0.00 | 0.00 | 0.00 | 61 | 1020.1 |
| 20260831155043 | 10 | 28 | 3.2 | 4.8 | 0.00 | 0.00 | 0.00 | 62 | 1020.2 |
| 20260831154539 | 11 | 114 | 3.2 | 4.8 | 0.00 | 0.00 | 0.00 | 60 | 1020.3 |
| 20260831154038 | 10 | 0 | 0.0 | 3.2 | 0.00 | 0.00 | 0.00 | 63 | 1020.5 |
| 20260831153538 | 10 | 11 | 0.0 | 4.8 | 0.00 | 0.00 | 0.00 | 64 | 1020.2 |
| 20260831153035 | 10 | 287 | 0.0 | 6.4 | 0.00 | 0.00 | 0.00 | 64 | 1020.3 |
| 20260831152530 | 10 | 34 | 3.2 | 6.4 | 0.00 | 0.00 | 0.00 | 64 | 1020.3 |
| 20260831152026 | 10 | 120 | 3.2 | 4.8 | 0.00 | 0.00 | 0.00 | 64 | 1020.3 |
| 20260831151525 | 9 | 346 | 0.0 | 4.8 | 0.00 | 0.00 | 0.00 | 66 | 1020.3 |
| 20260831151025 | 8 | 213 | 3.2 | 4.8 | 0.00 | 0.00 | 0.00 | 67 | 1020.5 |
| 20260831150520 | 8 | 16 | 0.0 | 4.8 | 0.00 | 0.00 | 0.00 | 67 | 1020.5 |
| 20260831150016 | 8 | 279 | 0.0 | 4.8 | 0.00 | 0.00 | 0.00 | 67 | 1020.3 |
| 20260831145511 | 8 | 194 | 1.6 | 3.2 | 0.00 | 0.00 | 0.00 | 67 | 1020.2 |
| 20260831145007 | 8 | 294 | 0.0 | 4.8 | 0.00 | 0.00 | 0.00 | 67 | 1020.2 |
| 20260831144502 | 8 | 294 | 1.6 | 3.2 | 0.00 | 0.00 | 0.00 | 66 | 1020.2 |
| 20260831143957 | 8 | 23 | 1.6 | 3.2 | 0.00 | 0.00 | 0.00 | 65 | 1020.3 |
| 20260831143452 | 8 | 292 | 3.2 | 3.2 | 0.00 | 0.00 | 0.00 | 66 | 1020.3 |
| 20260831142948 | 8 | 41 | 3.2 | 4.8 | 0.00 | 0.00 | 0.00 | 66 | 1020.3 |
| 20260831142444 | 8 | 270 | 0.0 | 1.6 | 0.00 | 0.00 | 0.00 | 66 | 1020.5 |
| 20260831141938 | 8 | 187 | 0.0 | 1.6 | 0.00 | 0.00 | 0.00 | 64 | 1020.2 |
| 20260831141431 | 10 | 74 | 0.0 | 1.6 | 0.00 | 0.00 | 0.00 | 61 | 1020.2 |
| 20260831140927 | 8 | 186 | 0.0 | 0.0 | 0.00 | 0.00 | 0.00 | 67 | 1020.2 |
| 20260831140421 | 7 | 186 | 0.0 | 3.2 | 0.00 | 0.00 | 0.00 | 68 | 1020.2 |
| 20260831135920 | 7 | 212 | 0.0 | 1.6 | 0.00 | 0.00 | 0.00 | 70 | 1020.2 |
| 20260831135420 | 6 | 225 | 0.0 | 4.8 | 0.00 | 0.00 | 0.00 | 71 | 1020.1 |
| 20260831134915 | 6 | 160 | 0.0 | 4.8 | 0.00 | 0.00 | 0.00 | 74 | 1020.0 |
| 20260831134412 | 5 | 78 | 1.6 | 4.8 | 0.00 | 0.00 | 0.00 | 77 | 1020.1 |
| 20260831133911 | 5 | 26 | 0.0 | 4.8 | 0.00 | 0.00 | 0.00 | 78 | 1019.9 |
| 20260831133406 | 5 | 113 | 3.2 | 3.2 | 0.00 | 0.00 | 0.00 | 79 | 1020.0 |
| 20260831132901 | 5 | 112 | 4.8 | 4.8 | 0.00 | 0.00 | 0.00 | 78 | 1019.9 |
| 20260831132356 | 5 | 140 | 0.0 | 3.2 | 0.00 | 0.00 | 0.00 | 75 | 1019.9 |
| 20260831131855 | 5 | 154 | 1.6 | 3.2 | 0.00 | 0.00 | 0.00 | 75 | 1019.8 |
| 20260831131351 | 5 | 105 | 1.6 | 3.2 | 0.00 | 0.00 | 0.00 | 76 | 1020.0 |
| 20260831130846 | 5 | 97 | 1.6 | 3.2 | 0.00 | 0.00 | 0.00 | 75 | 1019.9 |
| 20260831130342 | 5 | 121 | 3.2 | 3.2 | 0.00 | 0.00 | 0.00 | 76 | 1019.8 |
| 20260831125841 | 5 | 83 | 1.6 | 8.0 | 0.00 | 0.00 | 0.00 | 74 | 1019.9 |
| 20260831125336 | 6 | 144 | 3.2 | 6.4 | 0.00 | 0.00 | 0.00 | 72 | 1019.9 |
| 20260831124831 | 6 | 125 | 4.8 | 9.7 | 0.00 | 0.00 | 0.00 | 72 | 1019.7 |
| 20260831124327 | 6 | 125 | 3.2 | 6.4 | 0.00 | 0.00 | 0.00 | 73 | 1019.6 |
| 20260831123827 | 6 | 112 | 4.8 | 6.4 | 0.00 | 0.00 | 0.00 | 73 | 1019.6 |
| 20260831123326 | 5 | 118 | 4.8 | 6.4 | 0.00 | 0.00 | 0.00 | 75 | 1019.1 |
| 20260831122821 | 5 | 118 | 6.4 | 6.4 | 0.00 | 0.00 | 0.00 | 75 | 1019.6 |
| 20260831122316 | 5 | 135 | 3.2 | 6.4 | 0.00 | 0.00 | 0.00 | 75 | 1019.6 |
| 20260831121816 | 5 | 96 | 4.8 | 6.4 | 0.00 | 0.00 | 0.00 | 75 | 1019.6 |
| 20260831121313 | 6 | 105 | 3.2 | 4.8 | 0.00 | 0.00 | 0.00 | 73 | 1019.5 |
| 20260831120808 | 5 | 123 | 6.4 | 6.4 | 0.00 | 0.00 | 0.00 | 73 | 1019.0 |
| 20260831120302 | 5 | 148 | 0.0 | 6.4 | 0.00 | 0.00 | 0.00 | 74 | 1019.3 |
| 20260831115757 | 5 | 98 | 3.2 | 4.8 | 0.00 | 0.00 | 0.00 | 74 | 1019.2 |
| 20260831115254 | 6 | 131 | 6.4 | 9.7 | 0.00 | 0.00 | 0.00 | 72 | 1019.5 |
| 20260831114753 | 6 | 124 | 4.8 | 8.0 | 0.00 | 0.00 | 0.00 | 73 | 1019.8 |
| 20260831114247 | 6 | 132 | 3.2 | 6.4 | 0.00 | 0.00 | 0.00 | 73 | 1019.3 |
| 20260831113742 | 5 | 132 | 0.0 | 3.2 | 0.00 | 0.00 | 0.00 | 73 | 1019.5 |
| 20260831113237 | 5 | 103 | 1.6 | 4.8 | 0.00 | 0.00 | 0.00 | 73 | 1019.3 |
| 20260831112736 | 5 | 114 | 1.6 | 4.8 | 0.00 | 0.00 | 0.00 | 73 | 1019.5 |
| 20260831112231 | 6 | 120 | 0.0 | 3.2 | 0.00 | 0.00 | 0.00 | 72 | 1019.5 |
| 20260831111727 | 6 | 117 | 3.2 | 6.4 | 0.00 | 0.00 | 0.00 | 71 | 1019.2 |
| 20260831111223 | 6 | 108 | 4.8 | 8.0 | 0.00 | 0.00 | 0.00 | 69 | 1019.3 |
| 20260831110719 | 6 | 125 | 6.4 | 9.7 | 0.00 | 0.00 | 0.00 | 70 | 1019.5 |
| 20260831110214 | 6 | 100 | 6.4 | 8.0 | 0.00 | 0.00 | 0.00 | 71 | 1019.3 |
| 20260831105712 | 6 | 103 | 8.0 | 9.7 | 0.00 | 0.00 | 0.00 | 70 | 1019.3 |
| 20260831105208 | 6 | 107 | 4.8 | 6.4 | 0.00 | 0.00 | 0.00 | 70 | 1019.2 |
| 20260831104703 | 7 | 102 | 4.8 | 6.4 | 0.00 | 0.00 | 0.00 | 68 | 1019.3 |
| 20260831104200 | 7 | 90 | 6.4 | 6.4 | 0.00 | 0.00 | 0.00 | 67 | 1019.3 |
| 20260831103659 | 7 | 120 | 4.8 | 8.0 | 0.00 | 0.00 | 0.00 | 66 | 1019.3 |
| 20260831103155 | 7 | 113 | 6.4 | 8.0 | 0.00 | 0.00 | 0.00 | 67 | 1019.1 |
| 20260831102654 | 7 | 122 | 6.4 | 8.0 | 0.00 | 0.00 | 0.00 | 68 | 1019.2 |
| 20260831102149 | 7 | 115 | 6.4 | 8.0 | 0.00 | 0.00 | 0.00 | 67 | 1019.1 |
| 20260831101645 | 7 | 118 | 4.8 | 6.4 | 0.00 | 0.00 | 0.00 | 68 | 1019.2 |
| 20260831101141 | 6 | 67 | 6.4 | 9.7 | 0.00 | 0.00 | 0.00 | 69 | 1019.2 |
| 20260831100637 | 6 | 119 | 4.8 | 8.0 | 0.00 | 0.00 | 0.00 | 69 | 1019.0 |
| 20260831100133 | 6 | 80 | 3.2 | 8.0 | 0.00 | 0.00 | 0.00 | 69 | 1019.1 |
| 20260831095630 | 6 | 112 | 4.8 | 6.4 | 0.00 | 0.00 | 0.00 | 70 | 1019.1 |